GSAT0223 (GALILEO 27)

Last updated on Sat Aug 15 2026 00:02:49 GMT+0000 (Coordinated Universal Time)

1 49809U 21116A 26226.06865080 -.00000108 00000+0 00000+0 0 9990 2 49809 57.1377 340.1124 0003288 208.7644 154.2753 1.70476184 29173
UTC large
Height (km)
Speed (km/s)
/
Latitude / Longitude
Inclination (degrees)
Orbital Period (minutes)
Azimuth
Elevation
Range (km)
Doppler Factor

Next 0 passes for location: London (51.5072 / 0.1276)

No passes found over London.
GSAT0223 (GALILEO 27)